�N����,����,�~����,�C��,���x,�C��,����,���ϕ���,�ő�u�ԕ���,�ő厞����,���˗�,�I�_���x,�n�����x,�ő啗���N��,DTYPE
"17/05/14","00:10",0.0,15.6,96.4,1002.6,318.1,0.1,0.8,338.7,0.00,15.1,16.7,"00:00:16",1
"17/05/14","00:20",0.0,15.7,96.8,1002.4,310.5,0.3,0.6,261.1,0.00,15.2,16.9,"00:12:00",1
"17/05/14","00:30",0.0,15.7,96.2,1002.2,14.2,0.2,0.8,351.7,0.00,15.1,16.8,"00:22:32",1
"17/05/14","00:40",0.0,15.4,96.6,1002.4,302.5,0.3,0.9,342.3,0.00,14.9,16.8,"00:39:52",1
"17/05/14","00:50",0.0,15.5,97.0,1002.4,313.3,0.5,0.9,343.1,0.00,15.1,16.9,"00:40:32",1
"17/05/14","01:00",0.0,15.8,97.1,1002.2,310.4,0.2,0.6,317.4,0.00,15.4,16.9,"00:52:16",1
"17/05/14","01:10",0.0,16.0,97.0,1002.4,226.8,0.2,0.8,306.5,0.00,15.6,16.8,"01:08:32",1
"17/05/14","01:20",0.0,16.0,97.1,1002.2,354.3,0.2,0.8,353.1,0.00,15.6,16.8,"01:10:56",1
"17/05/14","01:30",0.0,15.9,96.9,1002.4,327.4,0.5,0.9,326.5,0.00,15.4,16.6,"01:27:28",1
"17/05/14","01:40",0.0,15.9,97.3,1001.9,273.3,0.1,0.5,308.8,0.00,15.5,16.5,"01:30:08",1
"17/05/14","01:50",0.0,15.9,97.2,1002.2,92.1,0.0,0.3,142.6,0.00,15.5,16.7,"01:45:20",1
"17/05/14","02:00",0.0,16.0,97.4,1002.4,265.4,0.3,0.5,269.1,0.00,15.6,16.7,"01:51:04",1
"17/05/14","02:10",0.0,16.2,97.4,1002.2,335.7,0.1,0.4,322.3,0.00,15.8,16.6,"02:00:08",1
"17/05/14","02:20",0.0,16.3,97.4,1002.4,329.0,0.1,0.5,306.2,0.00,15.9,16.7,"02:10:02",1
"17/05/14","02:30",0.0,16.3,97.4,1002.4,326.2,0.6,1.0,341.9,0.00,15.9,16.7,"02:28:48",1
"17/05/14","02:40",0.0,16.4,97.4,1002.4,348.8,0.7,1.2,349.8,0.00,16.0,16.7,"02:37:52",1
"17/05/14","02:50",0.0,16.4,97.4,1002.9,347.7,0.5,1.1,343.3,0.00,16.0,16.6,"02:41:36",1
"17/05/14","03:00",0.0,16.4,97.5,1002.6,331.8,0.7,1.1,351.6,0.00,16.0,16.7,"02:59:28",1
"17/05/14","03:10",0.0,16.4,97.4,1002.9,331.4,0.6,0.9,357.2,0.00,16.0,16.6,"03:00:08",1
"17/05/14","03:20",0.0,16.4,97.5,1002.9,329.6,0.6,0.9,332.2,0.00,16.0,16.7,"03:12:56",1
"17/05/14","03:30",0.0,16.4,97.5,1002.6,325.5,0.6,1.1,346.1,0.00,16.0,16.7,"03:24:48",1
"17/05/14","03:40",0.0,16.2,97.3,1003.4,344.9,0.7,1.0,344.6,0.00,15.8,16.8,"03:33:20",1
"17/05/14","03:50",0.0,16.0,97.5,1003.4,289.0,0.5,0.8,251.1,0.00,15.6,16.4,"03:45:36",1
"17/05/14","04:00",0.0,15.9,97.6,1003.1,187.0,0.0,0.4,138.6,0.00,15.6,16.7,"03:57:04",1
"17/05/14","04:10",0.0,15.9,97.8,1003.4,273.4,0.0,0.3,271.9,0.00,15.6,16.6,"04:02:24",1
"17/05/14","04:20",0.0,16.0,97.8,1003.1,245.4,0.2,0.6,247.8,0.00,15.7,16.6,"04:15:20",1
"17/05/14","04:30",0.0,16.1,97.8,1003.4,269.1,0.5,0.9,303.4,0.00,15.8,16.5,"04:26:48",1
"17/05/14","04:40",0.0,16.1,97.8,1003.4,339.7,0.5,1.0,341.9,0.00,15.8,16.6,"04:37:36",1
"17/05/14","04:50",0.0,16.1,97.8,1003.8,330.7,0.6,1.1,346.3,0.00,15.8,16.5,"04:42:56",1
"17/05/14","05:00",0.0,16.1,97.8,1003.8,302.2,0.3,0.6,305.7,0.00,15.8,16.5,"04:58:16",1
"17/05/14","05:10",0.0,16.0,97.8,1004.1,268.5,0.0,0.4,325.6,0.00,15.7,16.7,"05:09:20",1
"17/05/14","05:20",0.0,16.1,97.9,1004.1,306.5,0.3,0.6,318.1,0.00,15.8,16.7,"05:19:12",1
"17/05/14","05:30",0.0,16.2,97.9,1004.1,304.8,0.5,0.9,344.7,0.00,15.9,16.5,"05:23:04",1
"17/05/14","05:40",0.0,16.3,97.9,1004.1,235.1,0.2,0.5,241.4,0.00,16.0,16.6,"05:35:44",1
"17/05/14","05:50",0.0,16.4,97.9,1004.1,289.9,0.3,0.8,240.7,0.00,16.1,16.8,"05:41:28",1
"17/05/14","06:00",0.0,16.5,97.9,1004.3,242.6,0.1,0.5,329.9,0.00,16.2,16.6,"05:58:48",1
"17/05/14","06:10",0.0,16.6,97.9,1004.3,335.7,0.5,0.9,343.7,0.01,16.3,16.6,"06:05:04",1
"17/05/14","06:20",0.0,16.7,97.7,1004.8,348.3,0.6,1.0,5.9,0.00,16.4,16.5,"06:18:08",1
"17/05/14","06:30",0.0,16.7,97.7,1004.5,358.1,0.2,1.1,353.3,0.00,16.4,16.7,"06:20:24",1
"17/05/14","06:40",0.2,16.7,97.7,1004.8,348.4,0.6,1.1,338.2,0.00,16.4,16.5,"06:39:12",1
"17/05/14","06:50",0.0,16.8,97.6,1005.0,337.0,0.5,0.9,338.5,0.00,16.5,16.7,"06:46:32",1
"17/05/14","07:00",0.0,16.8,97.5,1004.8,334.4,0.6,1.0,339.8,0.00,16.4,16.8,"06:54:00",1
"17/05/14","07:10",0.0,17.0,97.5,1005.2,334.3,0.7,1.1,334.8,0.02,16.6,16.6,"07:02:56",1
"17/05/14","07:20",0.0,17.1,97.3,1005.2,330.1,0.6,1.0,343.1,0.01,16.7,16.7,"07:18:32",1
"17/05/14","07:30",0.0,17.3,97.1,1005.0,318.2,0.6,1.2,337.1,0.04,16.9,16.6,"07:24:40",1
"17/05/14","07:40",0.0,17.6,96.9,1005.0,308.9,0.5,1.1,328.2,0.05,17.1,16.6,"07:34:48",1
"17/05/14","07:50",0.0,17.7,96.4,1004.8,254.7,0.5,1.4,233.3,0.06,17.2,16.8,"07:45:44",1
"17/05/14","08:00",0.0,18.1,95.2,1005.0,251.2,0.3,1.0,233.0,0.13,17.4,16.8,"07:54:40",1
"17/05/14","08:10",0.0,18.6,91.7,1005.0,87.8,0.1,0.8,130.1,0.14,17.3,16.8,"08:06:56",1
"17/05/14","08:20",0.0,19.4,89.1,1004.8,234.1,0.3,1.3,213.7,0.22,17.6,16.8,"08:14:40",1
"17/05/14","08:30",0.0,19.5,88.8,1004.8,9.0,0.6,1.7,0.2,0.19,17.6,16.9,"08:23:36",1
"17/05/14","08:40",0.0,20.2,86.7,1005.2,345.4,0.7,2.1,0.5,0.29,18.0,16.9,"08:36:00",1
"17/05/14","08:50",0.0,20.1,84.1,1005.0,31.1,0.7,1.7,10.5,0.23,17.4,17.1,"08:46:08",1
"17/05/14","09:00",0.0,21.0,84.1,1005.0,29.4,0.7,1.6,1.6,0.33,18.3,17.2,"08:53:04",1
"17/05/14","09:10",0.0,20.7,82.6,1004.8,138.5,0.7,1.9,120.2,0.24,17.7,17.1,"09:08:56",1
"17/05/14","09:20",0.0,21.1,80.5,1004.5,109.0,0.6,1.7,112.6,0.28,17.7,17.4,"09:11:20",1
"17/05/14","09:30",0.0,21.0,79.7,1004.3,128.6,1.0,1.7,89.5,0.29,17.4,17.3,"09:20:48",1
"17/05/14","09:40",0.0,21.3,80.5,1004.3,181.1,0.6,2.0,200.0,0.19,17.9,17.7,"09:31:12",1
"17/05/14","09:50",0.0,21.8,76.3,1004.3,134.3,0.7,1.7,115.8,0.29,17.5,17.7,"09:49:36",1
"17/05/14","10:00",0.0,21.4,76.7,1003.6,153.1,1.1,1.9,120.5,0.22,17.2,17.7,"09:50:48",1
"17/05/14","10:10",0.0,21.7,77.0,1003.8,182.1,0.7,2.4,229.5,0.20,17.5,17.7,"10:01:12",1
"17/05/14","10:20",0.0,21.7,75.7,1003.6,141.5,1.0,2.1,233.1,0.23,17.3,17.7,"10:16:16",1
"17/05/14","10:30",0.0,22.4,73.9,1003.4,224.0,0.6,1.9,193.4,0.38,17.6,18.0,"10:29:04",1
"17/05/14","10:40",0.0,22.6,72.5,1003.4,214.1,1.1,2.8,216.6,0.30,17.4,18.1,"10:30:02",1
"17/05/14","10:50",0.0,23.2,73.5,1003.4,193.7,1.6,3.3,189.7,0.48,18.2,18.1,"10:49:44",1
"17/05/14","11:00",0.0,22.6,72.3,1003.1,166.4,1.3,2.8,231.3,0.20,17.4,18.1,"10:58:16",1
"17/05/14","11:10",0.0,22.6,72.0,1003.4,179.4,1.3,2.4,202.8,0.19,17.3,18.2,"11:01:52",1
"17/05/14","11:20",0.0,22.2,72.6,1002.9,156.6,1.2,2.8,219.7,0.11,17.1,18.3,"11:19:52",1
"17/05/14","11:30",0.0,22.7,72.0,1002.9,197.3,1.7,3.6,213.3,0.18,17.4,18.2,"11:23:20",1
"17/05/14","11:40",0.0,23.8,69.4,1002.6,161.0,1.5,2.9,195.5,0.41,17.9,18.3,"11:31:20",1
"17/05/14","11:50",0.0,24.9,69.1,1002.6,161.9,2.2,4.7,174.8,0.58,18.9,18.6,"11:43:52",1
"17/05/14","12:00",0.0,25.0,64.3,1002.2,177.1,2.6,4.8,199.6,0.62,17.8,18.7,"11:50:02",1
"17/05/14","12:10",0.0,25.2,63.4,1002.2,163.9,2.3,5.0,186.2,0.54,17.8,19.0,"12:00:08",1
"17/05/14","12:20",0.0,24.6,64.7,1001.9,182.2,2.5,5.1,195.2,0.29,17.6,19.2,"12:14:32",1
"17/05/14","12:30",0.0,25.4,62.6,1001.7,187.8,2.2,4.3,199.3,0.48,17.8,19.2,"12:27:20",1
"17/05/14","12:40",0.0,25.4,59.6,1001.5,197.3,2.7,5.4,222.3,0.42,17.0,19.4,"12:35:20",1
"17/05/14","12:50",0.0,24.9,60.6,1001.7,224.2,2.1,7.2,234.7,0.34,16.8,19.3,"12:43:52",1
"17/05/14","13:00",0.0,25.5,60.7,1001.5,214.6,2.5,5.5,133.1,0.44,17.4,19.4,"12:56:56",1
"17/05/14","13:10",0.0,24.6,60.4,1001.2,224.9,2.8,6.4,238.4,0.21,16.5,19.4,"13:06:08",1
"17/05/14","13:20",0.0,25.0,57.7,1001.2,168.3,2.3,5.5,154.7,0.28,16.1,19.5,"13:17:52",1
"17/05/14","13:30",0.0,25.2,58.2,1001.0,213.8,2.5,6.2,233.3,0.30,16.4,19.7,"13:21:20",1
"17/05/14","13:40",0.0,25.7,56.3,1000.8,185.8,2.7,5.5,179.6,0.36,16.4,19.6,"13:32:48",1
"17/05/14","13:50",0.2,25.5,52.9,1001.0,246.0,3.0,6.5,317.9,0.35,15.2,19.7,"13:48:56",1
"17/05/14","14:00",0.0,26.0,51.4,1000.8,298.7,3.0,5.5,323.8,0.44,15.2,19.8,"13:56:48",1
"17/05/14","14:10",0.0,27.1,52.8,1000.8,257.9,1.7,3.6,286.8,0.43,16.7,19.7,"14:00:56",1
"17/05/14","14:20",0.0,26.4,53.7,1000.5,217.0,2.3,5.0,193.9,0.44,16.3,19.8,"14:16:40",1
"17/05/14","14:30",0.0,26.0,50.3,1000.8,234.4,1.8,4.4,180.7,0.30,14.9,19.9,"14:20:24",1
"17/05/14","14:40",0.0,27.1,47.0,1000.5,318.7,3.5,7.4,323.4,0.52,14.9,20.0,"14:36:16",1
"17/05/14","14:50",0.0,27.4,45.0,999.6,239.0,1.3,2.7,169.2,0.47,14.5,19.9,"14:45:20",1
"17/05/14","15:00",0.0,26.9,47.7,999.6,192.0,1.5,4.1,179.4,0.39,14.9,19.9,"14:53:28",1
"17/05/14","15:10",0.0,26.8,43.8,999.6,276.4,1.8,4.1,339.3,0.32,13.5,20.3,"15:05:36",1
"17/05/14","15:20",0.0,27.1,46.9,1000.3,260.8,1.7,3.5,231.1,0.34,14.8,20.2,"15:10:56",1
"17/05/14","15:30",0.0,27.1,50.1,999.8,210.1,1.5,3.2,178.4,0.33,15.9,20.2,"15:24:08",1
"17/05/14","15:40",0.0,27.0,47.0,1000.0,215.5,1.7,3.7,234.7,0.36,14.8,20.2,"15:31:36",1
"17/05/14","15:50",0.0,26.5,50.2,1000.0,189.6,2.3,4.8,227.7,0.25,15.3,20.0,"15:46:32",1
"17/05/14","16:00",0.0,26.6,50.8,1000.0,188.0,2.8,5.2,171.8,0.26,15.6,20.2,"15:52:16",1
"17/05/14","16:10",0.0,26.9,48.8,999.8,207.3,2.1,3.4,194.7,0.27,15.3,20.3,"16:05:20",1
"17/05/14","16:20",0.0,26.8,46.5,1000.0,212.6,2.6,4.3,225.9,0.27,14.4,20.2,"16:18:32",1
"17/05/14","16:30",0.0,27.0,45.8,1000.0,244.3,1.5,4.0,207.2,0.25,14.4,20.3,"16:21:04",1
"17/05/14","16:40",0.0,27.1,35.8,1000.3,305.9,1.3,3.5,266.3,0.23,10.7,20.2,"16:36:08",1
"17/05/14","16:50",0.0,26.8,34.8,1000.5,312.1,2.0,4.7,343.3,0.20,10.0,20.2,"16:45:36",1
"17/05/14","17:00",0.0,26.8,36.4,1000.8,301.1,1.6,3.5,321.6,0.18,10.7,20.2,"16:56:56",1
"17/05/14","17:10",0.0,26.4,36.1,1000.8,303.9,1.5,2.7,342.1,0.15,10.2,20.1,"17:06:00",1
"17/05/14","17:20",0.0,26.3,37.4,1000.5,264.7,1.1,3.6,252.6,0.13,10.7,19.8,"17:17:04",1
"17/05/14","17:30",0.0,26.0,37.8,1000.8,285.2,1.5,5.2,351.5,0.07,10.6,19.9,"17:28:16",1
"17/05/14","17:40",0.0,25.7,39.4,1001.2,293.9,1.6,4.4,317.1,0.03,10.9,20.1,"17:33:28",1
"17/05/14","17:50",0.0,25.5,40.0,1001.2,303.0,1.1,2.9,341.9,0.02,11.0,19.8,"17:43:28",1
"17/05/14","18:00",0.0,25.3,41.8,1001.2,280.6,0.7,2.4,311.9,0.02,11.4,19.8,"17:52:56",1
"17/05/14","18:10",0.0,25.0,44.9,1001.2,336.1,0.7,1.3,304.3,0.01,12.3,19.7,"18:01:44",1
"17/05/14","18:20",0.0,24.3,46.8,1001.5,347.5,0.8,2.0,338.7,0.01,12.3,19.6,"18:19:20",1
"17/05/14","18:30",0.0,23.4,52.9,1001.5,334.9,0.8,1.3,331.8,0.01,13.3,19.6,"18:23:44",1
"17/05/14","18:40",0.0,22.5,56.6,1001.7,315.9,0.8,1.4,331.1,0.00,13.5,19.5,"18:30:08",1
"17/05/14","18:50",0.0,21.8,58.2,1002.2,303.6,0.7,1.4,317.0,0.00,13.3,19.4,"18:47:04",1
"17/05/14","19:00",0.0,21.1,60.6,1002.2,297.4,0.8,1.9,349.6,0.00,13.2,19.1,"18:53:12",1
"17/05/14","19:10",0.0,20.6,63.1,1002.4,305.2,0.8,1.9,324.6,0.00,13.4,19.2,"19:03:20",1
"17/05/14","19:20",0.0,20.1,64.9,1002.9,291.6,0.7,1.7,324.0,0.00,13.3,19.2,"19:18:56",1
"17/05/14","19:30",0.0,19.5,68.4,1003.1,299.1,0.8,1.4,318.2,0.00,13.6,19.1,"19:20:24",1
"17/05/14","19:40",0.0,19.0,70.6,1003.8,321.5,1.3,2.8,316.0,0.00,13.6,18.9,"19:37:04",1
"17/05/14","19:50",0.0,19.0,71.3,1003.6,343.1,1.3,2.4,354.9,0.00,13.7,18.8,"19:44:00",1
"17/05/14","20:00",0.2,18.8,71.6,1003.6,341.9,0.7,1.8,335.3,0.00,13.6,18.8,"19:51:52",1
"17/05/14","20:10",0.0,18.9,72.4,1003.4,53.1,0.3,1.1,36.9,0.00,13.9,18.6,"20:09:52",1
"17/05/14","20:20",0.0,19.2,72.6,1003.6,351.2,0.8,1.8,351.8,0.00,14.2,18.7,"20:18:32",1
"17/05/14","20:30",0.0,18.9,74.0,1004.3,345.8,1.5,2.5,349.7,0.00,14.2,18.7,"20:24:08",1
"17/05/14","20:40",0.0,19.0,74.8,1004.1,332.3,1.3,2.7,324.3,0.00,14.5,18.5,"20:37:36",1
"17/05/14","20:50",0.0,19.2,73.8,1004.3,325.2,1.3,2.4,330.6,0.00,14.5,18.5,"20:46:16",1
"17/05/14","21:00",0.0,19.2,74.5,1004.3,341.8,2.1,3.1,345.6,0.00,14.6,18.4,"20:52:00",1
"17/05/14","21:10",0.0,18.8,76.2,1004.5,351.3,1.5,2.2,338.8,0.00,14.6,18.5,"21:04:40",1
"17/05/14","21:20",0.0,18.6,77.7,1004.3,15.0,0.8,2.0,322.7,0.00,14.7,18.3,"21:17:20",1
"17/05/14","21:30",0.0,18.5,78.6,1004.5,329.1,1.0,1.7,339.5,0.00,14.8,18.2,"21:25:20",1
"17/05/14","21:40",0.0,18.3,79.4,1004.5,313.6,1.1,1.9,316.2,0.00,14.7,18.0,"21:33:44",1
"17/05/14","21:50",0.0,18.4,79.1,1004.1,326.5,1.2,2.4,355.0,0.00,14.8,18.2,"21:45:44",1
"17/05/14","22:00",0.0,18.2,79.6,1004.1,317.2,1.3,2.5,345.4,0.00,14.7,18.2,"21:59:52",1
"17/05/14","22:10",0.0,18.0,79.8,1004.3,312.0,1.1,2.8,341.9,0.00,14.5,18.0,"22:09:12",1
"17/05/14","22:20",0.0,17.7,80.7,1004.5,312.1,1.0,1.9,335.9,0.00,14.4,18.0,"22:10:08",1
"17/05/14","22:30",0.0,17.5,81.6,1004.8,308.4,1.2,1.9,301.4,0.00,14.4,18.0,"22:26:40",1
"17/05/14","22:40",0.0,17.2,82.6,1004.5,305.3,0.7,1.6,314.1,0.00,14.3,18.0,"22:30:08",1
"17/05/14","22:50",0.0,17.0,83.7,1004.5,310.8,1.0,1.6,285.6,0.00,14.3,17.9,"22:49:20",1
"17/05/14","23:00",0.0,16.9,84.2,1004.8,301.9,0.8,1.6,319.8,0.00,14.3,17.7,"22:51:36",1
"17/05/14","23:10",0.0,16.7,85.1,1004.8,295.9,0.8,1.3,264.8,0.00,14.2,17.7,"23:02:40",1
"17/05/14","23:20",0.0,16.6,85.7,1005.0,299.9,0.8,1.4,332.2,0.00,14.2,17.7,"23:13:36",1
"17/05/14","23:30",0.0,16.5,86.4,1005.2,301.2,1.0,1.4,279.7,0.00,14.3,17.6,"23:23:04",1
"17/05/14","23:40",0.0,16.4,86.8,1005.2,286.9,0.6,1.3,318.3,0.00,14.2,17.5,"23:30:08",1
"17/05/14","23:50",0.0,16.2,87.3,1004.8,313.2,1.0,1.4,348.0,0.00,14.1,17.5,"23:45:12",1
"17/05/14","24:00",0.0,16.1,88.0,1005.0,318.5,0.8,1.7,344.2,0.00,14.2,17.6,"23:51:36",1
